User: anonymous   Login
Location: Unspecified
(0.0000°N, 0.0000°E)
Time: 02:48:14
(UTC+01:00)
Language:

Cosmos 2219 - Orbit

View from above orbital plane
View from above orbital plane
View from above satellite
View from above satellite

Ground track
Ground track

The orbit data is extracted from the following two-line orbital elements,

1 22219U 92076A   15085.20863165  .00000356  00000-0  21349-3 0  9996
2 22219 071.0582 097.9286 0018839 197.2869 162.7614 14.13541883153186
Epoch (UTC): 26 March 2015 05:00:25
Eccentricity: 0.0018839
inclination: 71.0582°
perigee height: 833 km
apogee height: 861 km
right ascension of ascending node: 97.9286°
argument of perigee: 197.2869°
revolutions per day: 14.13541883
mean anomaly at epoch: 162.7614°
orbit number at epoch: 15318

The dashed part of the orbit path shows where the satellite is in the earth's shadow,  

DLR